CAPE
935 815 871 928 742 1048 947 793 1097 956 1592 1799 2228 2115 1847 1679 1782 2204 2024 1577 1884 1538 1693 1866 2089 2539 1596 1127 1038 1130 1213 1205 1123 678 901 935 2208 2314 2338 2503 1660 1136 743
927 1074 925 520 819 673 1037 853 1190 1079 1472 1404 1674 2286 1790 1291 1585 2038 1725 1211 1652 1328 1278 1415 1678 1368 2197 2112 1543 1676 1836 1826 1477 1915 2177 1453 1590 2012 2172 2720 1973 1232 1419
1176 1000 1348 543 532 788 920 1019 1252 1052 1158 1264 1601 1555 1179 1666 1612 1611 1577 1639 1485 1354 1163 1261 1282 1376 1667 1422 1907 1665 1131 1530 1954 1688 1386 1060 1313 1497 1815 2342 1934 1807 982
891 1010 707 740 742 792 1035 1352 1257 1665 1013 1035 1248 1691 1414 1231 1506 1725 1595 1619 1525 1291 1506 1300 1401 1419 1607 1832 1621 1901 1806 1947 1696 1512 1158 970 974 1328 1538 1062 776 727 794
231 258 623 970 1042 1236 1223 1438 1500 1588 1228 1940 1413 1768 1819 1557 1084 1879 1916 1804 1870 1669 1687 1594 1495 1317 995 1120 1978 2148 1925 1919 1317 1214 1030 947 824 1904 1761 1095 834 782 1318
67 35 59 143 373 764 1017 1206 1313 1528 1762 1808 1834 1794 1588 1243 0 1 140 1837 2015 1718 1666 1811 1552 1089 1195 766 608 378 543 2122 2140 2080 1483 1454 2152 2194 1427 1169 1470 1381 1508
75 40 41 124 154 175 284 618 836 1043 1134 1144 1185 1135 273 59 0 0 0 1544 1950 1535 1674 1840 1591 624 483 782 791 763 751 387 138 2102 2182 2183 2337 2799 2611 2594 3008 2316 2242
263 136 227 101 32 10 26 104 252 304 510 725 392 144 0 0 0 0 135 1448 814 423 427 169 73 0 0 0 335 962 1413 1647 1690 1602 2013 2040 2163 1603 1434 2134 2093 2265 2285
2 5 14 5 3 3 2 24 69 278 322 426 103 3 0 0 0 0 170 291 194 27 0 0 0 0 0 0 0 7 46 202 9 0 0 0 0 0 8 537 1096 2413 1796
0 0 0 0 34 88 64 4 2 162 26 0 0 0 0 0 0 0 0 54 2 0 0 0 0 0 0 0 0 0 0 0 0 0 0 0 0 0 0 413 1257 1496 1854
0 0 0 0 6 4 4 9 7 0 0 0 0 0 0 0 0 0 0 0 0 0 0 0 0 0 0 0 0 0 0 0 0 0 0 0 0 8 31 169 355 345 298
1 0 0 0 0 1 11 14 3 0 0 0 0 0 0 0 0 0 0 0 0 0 0 0 0 0 0 0 0 0 0 0 0 0 0 0 2 0 0 2 29 111 429
0 0 0 0 0 0 4 0 0 0 0 0 0 0 0 0 0 0 0 0 0 0 0 0 0 0 0 0 0 0 0 0 0 0 0 0 0 0 5 16 0 3 5
0 0 0 0 0 0 0 0 0 0 0 0 0 0 0 0 0 0 0 0 0 0 0 0 0 0 0 0 0 0 0 0 0 0 0 0 0 0 0 0 0 0 0
0 0 0 0 0 0 0 0 0 0 0 0 0 0 0 0 0 0 0 0 0 0 0 0 0 0 0 0 0 0 0 0 0 0 0 0 0 0 0 0 0 0 0
0 0 0 0 0 0 0 0 0 0 0 0 0 0 0 0 0 0 0 0 0 0 0 0 0 0 0 0 0 0 0 0 0 0 0 0 0 0 0 0 0 0 0
0 0 0 0 0 0 0 0 0 0 0 0 0 0 0 0 0 0 0 0 0 0 0 0 0 0 0 0 0 0 0 0 0 0 0 0 0 0 0 0 0 0 0
0 0 0 0 0 0 0 0 0 0 0 0 0 0 0 0 0 0 0 0 0 0 0 0 0 0 0 0 0 0 0 0 0 0 0 0 0 0 0 0 0 0 0
0 0 0 0 0 0 0 0 0 0 0 0 0 0 0 0 0 0 0 0 0 0 0 0 0 0 0 0 0 0 0 0 0 0 0 0 0 0 0 0 0 0 0
0 0 0 0 0 0 0 0 0 0 0 0 0 0 0 0 0 0 0 0 0 0 0 0 0 0 0 0 0 0 0 0 0 0 0 0 0 0 0 0 0 0 0
0 0 0 0 0 0 0 0 0 0 0 0 0 0 0 0 0 0 0 0 0 0 0 0 0 0 0 0 0 0 0 0 0 0 1 1 4 3 3 3 4 3 4
0 0 0 0 0 0 0 0 0 0 0 0 0 0 0 0 0 0 0 0 0 0 0 0 0 0 0 0 0 0 0 0 0 2 5 7 9 6 6 6 7 6 10
0 0 0 0 0 0 0 0 0 0 0 0 0 0 0 0 0 0 0 0 0 0 0 0 0 0 0 0 0 0 0 1 7 9 12 14 14 15 14 13 10 9 16
0 0 0 0 0 0 0 0 0 0 0 0 0 0 0 0 0 0 0 0 0 0 0 0 0 0 0 0 1 1 3 6 8 10 12 13 12 15 14 18 20 21 25
0 0 0 0 0 0 1 2 7 7 1 1 0 0 0 0 0 0 0 0 0 0 0 0 0 0 0 0 3 4 0 0 0 0 2 12 10 5 6 5 11 7 14
0 0 4 4 1 0 0 5 6 11 14 13 9 5 1 0 0 0 1 2 3 3 0 0 0 0 1 2 4 0 0 0 0 0 1 4 7 9 6 10 8 11 12
CIN
-2 0 0 0 0 0 0 0 0 -4 -3 -1 -4 -1 -2 0 0 0 0 0 0 0 0 0 0 0 0 0 0 0 0 0 0 -3 0 -1 -1 0 0 0 -2 -6 -29
0 -2 -5 0 0 0 0 0 0 -2 -1 -2 0 -2 -1 -2 0 0 0 0 0 0 0 0 0 0 0 -1 0 0 0 0 0 0 0 0 0 0 0 0 0 0 0
-1 -1 -2 -1 -1 0 0 0 0 0 0 0 -2 -3 -5 0 -1 0 0 0 0 0 0 0 0 0 0 0 0 0 0 0 0 0 0 0 0 0 0 0 0 0 -1
0 0 0 0 0 0 0 0 0 0 -1 0 0 0 0 -1 -1 0 -1 0 0 0 0 0 0 0 0 0 0 0 0 0 0 0 0 0 0 0 0 0 0 -1 -3
-7 -35 -5 0 0 0 0 0 0 0 0 0 0 0 0 0 -1 0 0 0 -3 0 0 0 -1 -5 -23 -36 -3 0 0 0 0 0 0 0 0 -2 0 0 0 0 -1
-36 -64 -74 -46 -17 0 0 0 0 0 0 0 0 0 0 -1 0 0 -176 0 0 0 0 0 -3 -12 -17 -60 -72 -115 -90 -4 0 0 0 0 0 0 0 0 0 0 0
-10 -16 -11 -7 0 -5 -8 -2 0 0 0 0 0 -7 -85 -103 0 0 0 -13 0 0 0 0 0 -31 -79 -41 -46 -58 -83 -128 -154 -7 0 0 0 0 0 0 0 0 0
0 -5 -1 -13 -24 -7 -40 -34 -24 -6 -2 0 -17 -91 0 0 0 0 -75 -6 -57 -74 -65 -140 -59 0 0 0 -101 -24 -3 -1 -5 -1 0 0 0 -3 -4 0 0 0 0
0 0 -56 -64 0 0 0 -50 -23 -1 0 -1 -53 0 0 0 0 0 -79 -65 -89 -171 0 0 0 0 0 0 0 -24 -132 -74 -5 0 0 0 0 0 -35 -66 -5 0 0
0 0 0 0 -41 -22 -4 -6 -18 -10 -161 0 0 0 0 0 0 0 0 -97 -91 0 0 0 0 0 0 0 0 0 0 0 0 0 0 0 0 0 0 -71 0 -1 0
0 0 0 0 0 0 0 0 0 0 0 0 0 0 0 0 0 0 0 0 0 0 0 0 0 0 0 0 0 0 0 0 0 0 0 0 0 0 -8 -18 -19 -28 -27
0 0 0 0 0 0 0 0 0 0 0 0 0 0 0 0 0 0 0 0 0 0 0 0 0 0 0 0 0 0 0 0 0 0 0 0 0 0 0 0 -64 -43 -3
0 0 0 0 0 0 0 0 0 0 0 0 0 0 0 0 0 0 0 0 0 0 0 0 0 0 0 0 0 0 0 0 0 0 0 0 0 0 0 0 -1 0 -8
0 0 0 0 0 0 0 0 0 0 0 0 0 0 0 0 0 0 0 0 0 0 0 0 0 0 0 0 0 0 0 0 0 0 0 0 0 0 0 0 0 0 0
0 0 0 0 0 0 0 0 0 0 0 0 0 0 0 0 0 0 0 0 0 0 0 0 0 0 0 0 0 0 0 0 0 0 0 0 0 0 0 0 0 0 0
0 0 0 0 0 0 0 0 0 0 0 0 0 0 0 0 0 0 0 0 0 0 0 0 0 0 0 0 0 0 0 0 0 0 0 0 0 0 0 0 0 0 0
0 0 0 0 0 0 0 0 0 0 0 0 0 0 0 0 0 0 0 0 0 0 0 0 0 0 0 0 0 0 0 0 0 0 0 0 0 0 0 0 0 0 0
0 0 0 0 0 0 0 0 0 0 0 0 0 0 0 0 0 0 0 0 0 0 0 0 0 0 0 0 0 0 0 0 0 0 0 0 0 0 0 0 0 0 0
0 0 0 0 0 0 0 0 0 0 0 0 0 0 0 0 0 0 0 0 0 0 0 0 0 0 0 0 0 0 0 0 0 0 0 0 0 0 0 0 0 0 0
0 0 0 0 0 0 0 0 0 0 0 0 0 0 0 0 0 0 0 0 0 0 0 0 0 0 0 0 0 0 0 0 0 0 0 0 0 0 0 0 0 0 0
0 0 0 0 0 0 0 0 0 0 0 0 0 0 0 0 0 0 0 0 0 0 0 0 0 0 0 0 0 0 0 0 0 0 0 0 0 0 0 0 0 0 0
0 0 0 0 0 0 0 0 0 0 0 0 0 0 0 0 0 0 0 0 0 0 0 0 0 0 0 0 0 0 0 0 0 0 0 0 0 0 0 0 0 0 0
0 0 0 0 0 0 0 0 0 0 0 0 0 0 0 0 0 0 0 0 0 0 0 0 0 0 0 0 0 0 0 0 0 0 0 0 0 0 0 0 0 0 0
0 0 0 0 0 0 0 0 0 0 0 0 0 0 0 0 0 0 0 0 0 0 0 0 0 0 0 0 0 0 0 0 0 0 0 0 0 0 0 0 0 0 0
0 0 0 0 0 0 0 0 0 0 0 0 0 0 0 0 0 0 0 0 0 0 0 0 0 0 0 0 0 0 -2 0 0 0 0 0 0 0 0 0 0 0 0
0 0 0 0 0 0 0 0 0 0 0 0 0 0 0 0 0 0 0 0 0 0 0 0 0 0 0 0 0 0 0 0 -1 0 0 0 0 0 0 0 0 0 0
Wind_Speed
10 10 10 8 8 7 7 8 4 4 5 5 6 6 5 6 7 7 5 3 6 5 5 5 5 4 7 6 5 6 6 6 8 8 9 7 8 9 10 9 10 10 4
8 9 10 11 8 8 8 8 5 6 4 4 4 6 5 5 5 7 6 5 6 6 6 5 6 5 4 6 7 5 8 7 8 9 8 9 6 8 7 9 7 10 8
8 10 8 11 12 10 9 9 7 8 7 7 5 4 5 5 5 6 6 6 6 6 6 5 6 6 6 7 5 7 6 6 5 7 8 9 7 7 7 8 8 7 9
5 5 6 9 12 10 9 9 9 8 8 8 7 6 6 5 5 5 7 6 6 7 6 6 6 7 7 7 7 6 8 7 7 9 9 9 8 6 7 8 8 8 9
7 7 6 4 3 6 8 8 8 8 8 7 8 7 6 6 4 5 6 6 6 6 6 7 8 3 4 4 5 6 8 8 8 8 8 9 8 9 10 9 10 9 10
7 6 6 3 2 3 3 5 5 5 6 5 5 4 2 2 10 9 8 7 7 6 5 5 5 3 5 7 7 7 7 8 9 8 10 10 9 8 8 10 11 11 12
8 8 7 7 6 3 3 2 5 5 5 5 4 7 6 6 12 5 5 9 6 5 4 4 3 5 5 6 6 9 11 12 12 8 11 11 12 10 11 11 10 12 12
11 10 10 8 7 4 1 3 3 3 5 5 6 7 8 9 15 10 1 3 9 9 6 6 7 5 6 8 8 7 8 7 4 5 8 10 9 10 9 10 12 14 12
8 7 8 6 6 6 4 2 2 2 4 7 6 7 8 10 17 16 2 7 8 8 8 7 5 6 8 9 6 6 8 7 3 7 6 10 12 12 12 8 9 7 12
9 7 5 2 5 6 5 6 4 1 9 8 9 9 8 10 17 18 13 6 6 6 6 7 12 8 7 8 6 6 5 7 10 10 9 7 10 8 14 9 7 6 8
7 8 8 5 5 5 5 4 8 9 9 9 9 6 8 8 12 16 18 7 4 5 3 3 5 8 8 7 5 6 6 7 9 9 7 6 6 6 6 8 9 9 10
7 8 7 6 5 5 7 7 9 9 9 9 8 7 5 6 10 12 13 11 10 4 4 4 4 8 7 6 6 8 11 10 6 7 7 7 8 8 8 8 8 10 11
7 7 7 6 6 6 7 8 6 6 5 6 5 6 3 2 3 7 7 8 7 5 5 6 8 8 11 8 1 10 11 6 6 7 7 7 8 9 11 9 10 11 10
6 6 6 6 6 5 5 3 3 4 3 5 4 4 3 4 5 6 6 4 3 3 2 2 6 9 8 7 5 4 7 7 7 8 8 8 9 7 8 8 10 10 10
5 5 6 6 5 7 9 8 6 9 9 0 3 3 2 3 7 7 7 5 5 4 6 2 4 5 5 6 7 8 9 8 8 8 8 8 9 10 9 9 10 11 10
3 3 2 4 6 6 7 9 15 13 14 14 13 10 8 10 7 7 7 8 8 7 1 4 5 4 5 5 6 8 8 9 9 9 9 10 10 9 10 11 10 10 11
2 1 2 3 3 5 6 6 7 8 10 10 11 13 14 9 6 5 5 10 10 8 3 4 4 4 4 5 5 5 6 7 8 9 10 10 10 10 11 10 10 10 10
2 6 4 3 4 4 4 5 6 7 7 8 5 5 6 3 5 7 9 8 3 4 5 5 5 6 6 7 7 7 7 8 8 8 8 8 9 10 11 12 12 14 13
3 3 4 3 3 2 5 5 4 4 5 6 8 7 8 6 5 8 12 5 4 5 5 5 5 6 6 6 7 7 8 8 8 9 9 10 10 10 11 11 12 14 14
4 4 6 5 6 6 5 5 5 5 5 5 4 3 4 7 4 3 4 4 4 5 5 5 5 5 6 6 6 7 8 8 9 9 10 10 10 11 12 13 13 14 13
8 8 8 6 6 5 5 5 5 4 4 4 5 5 7 3 3 3 3 4 4 4 4 4 3 3 4 4 5 6 7 8 8 9 10 10 11 12 12 12 13 13 14
7 8 8 7 6 6 6 5 5 4 5 5 6 6 8 6 3 3 3 3 4 3 4 3 4 4 4 5 5 6 7 8 8 10 10 11 12 12 13 13 13 13 14
9 9 9 8 6 4 5 6 5 5 5 4 3 5 6 3 3 2 2 2 2 1 2 1 2 4 4 5 5 5 6 7 7 8 11 11 11 12 13 14 14 14 14
10 11 10 9 9 9 9 7 7 3 3 5 5 4 3 3 3 3 1 1 1 1 1 2 2 4 4 4 4 5 5 5 7 10 12 12 12 12 12 13 13 16 14
10 11 11 11 10 10 9 9 8 8 7 6 5 5 5 4 4 4 4 3 2 3 3 3 3 4 6 5 7 8 4 4 10 12 10 13 15 18 15 14 16 15 18
12 13 13 11 11 11 11 10 10 9 9 8 7 6 6 6 6 5 5 4 4 4 4 4 4 5 8 7 7 5 6 12 13 9 10 11 12 12 13 15 20 15 18
Wind_Direction
201 208 219 209 223 233 222 231 223 259 212 202 213 212 199 211 219 209 246 246 223 240 268 260 262 280 283 293 271 271 272 270 279 295 326 311 328 307 323 326 302 289 332
224 216 207 225 229 228 221 237 225 240 230 235 215 210 230 206 208 218 225 213 223 233 239 252 259 269 272 260 271 271 309 321 294 299 296 291 296 318 307 305 307 313 343
249 209 208 218 229 235 235 233 211 235 247 248 242 235 221 216 194 208 224 229 227 229 240 240 260 261 266 291 296 314 280 256 252 277 308 287 318 291 321 296 291 305 285
197 210 217 206 220 228 237 243 241 227 241 241 238 230 217 217 227 214 207 223 239 236 249 248 242 267 266 272 266 285 271 278 275 260 284 291 293 302 266 293 327 315 325
130 97 97 124 230 238 233 233 238 229 222 235 229 226 227 216 227 222 217 225 231 234 244 254 239 263 356 315 283 270 280 269 280 289 289 282 299 2 327 315 301 326 303
148 148 134 144 87 179 220 205 199 199 182 196 209 199 231 268 358 346 293 254 239 238 245 247 279 228 224 223 240 253 275 277 274 284 294 304 304 285 302 315 319 313 309
157 149 154 144 143 114 107 131 155 155 150 145 148 77 64 24 346 306 267 252 248 254 244 251 238 62 352 328 305 247 233 227 236 279 282 287 300 304 319 304 302 304 299
166 160 161 156 141 126 76 106 202 157 138 136 107 102 85 49 355 360 22 60 80 69 68 82 88 71 37 336 318 313 311 299 260 263 290 296 300 320 304 297 293 288 279
117 124 141 150 148 156 175 203 261 160 192 122 104 84 74 53 9 1 16 118 109 97 82 40 62 64 19 342 329 348 331 327 347 203 249 274 274 270 264 290 282 294 293
110 109 101 122 185 172 178 171 196 19 88 104 97 78 58 56 27 16 358 111 109 119 115 122 68 39 348 345 336 351 351 351 327 323 309 277 244 259 226 243 298 311 308
101 116 113 91 105 132 148 160 99 108 106 105 101 88 63 23 45 36 20 39 31 103 88 74 42 12 345 335 317 8 334 309 305 293 311 315 335 330 334 3 333 319 310
122 117 111 112 109 112 121 126 124 129 125 123 122 114 100 73 31 32 28 33 360 64 38 25 356 339 325 329 358 322 290 281 330 327 332 344 349 344 343 328 321 333 321
116 107 108 111 106 116 124 125 122 148 139 138 156 130 130 79 50 46 34 24 11 8 11 333 305 316 289 237 11 290 290 9 349 325 339 352 343 320 326 339 339 312 319
118 123 132 124 108 108 117 122 136 136 154 154 160 155 143 91 32 7 354 357 356 330 359 11 340 284 273 277 301 358 12 15 351 10 349 331 306 322 330 334 328 325 324
129 135 150 139 124 98 56 23 82 45 11 111 63 29 335 88 46 353 341 1 355 358 312 27 30 28 15 9 13 21 14 2 5 351 337 334 332 331 328 332 327 321 321
140 163 102 146 152 127 124 102 62 61 51 53 45 37 85 55 24 2 342 328 325 311 167 65 58 38 26 30 28 5 14 1 2 345 344 339 333 332 337 327 331 331 331
349 70 132 255 169 159 154 145 130 103 76 67 59 57 54 37 16 359 320 301 302 301 94 70 54 52 41 31 13 23 8 10 345 351 344 341 340 334 329 325 325 322 316
172 19 254 193 216 188 184 178 162 167 158 132 98 87 103 67 3 335 298 267 163 69 53 47 41 30 25 17 12 4 357 349 354 342 340 340 338 338 332 332 330 331 328
206 189 226 210 207 195 178 177 155 149 153 139 145 188 171 189 223 264 283 57 59 59 49 52 36 30 27 14 7 359 346 358 338 339 342 340 337 332 330 327 324 321 323
219 27 251 189 177 200 179 169 161 168 164 147 135 93 136 184 167 113 75 73 74 64 48 40 31 23 23 13 1 353 347 347 349 344 343 337 336 333 327 326 322 319 313
198 184 239 205 204 203 193 179 166 166 150 144 114 69 348 297 122 101 88 79 54 52 50 43 35 24 15 6 357 349 346 343 343 340 335 336 333 323 320 314 313 311 308
205 189 203 213 202 197 192 172 174 165 159 162 143 133 246 246 134 120 98 86 68 53 36 14 359 358 4 6 357 341 335 335 342 344 335 327 321 316 312 309 307 308 309
211 207 201 210 213 179 190 204 192 187 176 174 174 168 189 158 148 134 115 88 90 71 65 359 342 336 356 349 340 332 327 335 336 329 317 310 304 301 303 300 297 299 299
208 211 215 212 205 205 205 204 205 216 226 193 189 193 199 190 180 143 240 152 242 288 300 278 300 299 307 314 311 294 303 325 326 310 309 302 292 286 284 282 284 284 286
221 216 212 215 210 211 215 223 208 202 201 218 208 213 205 214 218 202 222 218 237 269 262 273 282 285 275 296 296 291 315 307 290 292 290 300 299 299 297 295 293 291 286
216 221 221 212 212 209 215 210 219 215 215 211 217 215 216 219 220 223 223 228 245 251 274 267 271 282 283 277 275 338 290 270 279 277 300 300 298 298 297 293 291 290 287